[[{"header":{"parameterUnit":"m.s-1","parameterCategory":1,"la1":30.2991,"la2":30.254,"lo1":-89.0895,"lo2":-89.0444,"dy":0.0017,"dx":0.0017,"nx":28,"ny":28,"refTime":"2025-12-28T09:00:00:Z","depth":0,"parameterNumber":2,"parameterNumberName":"U-component_of_WINDS"},"data":[0,0,0,0,0,0,0,0,0,0,0,0,0,0,0,0,0,0,0,0,0,0,0,0,0,0,0,0,0,0,0,0,0,0,0,0,0,0,0,0,0,0,0,0,0,0,0,0,0,0,0,0,0,0,0,0,0,0,-1.2529,-1.2529,0,-1.2513,-1.2513,-1.2512,-1.2495,-1.2495,-1.2494,-1.2494,-1.2476,-1.2476,-1.2475,0,0,0,0,0,0,0,0,0,0,0,0,0,-1.2545,-1.2545,-1.2529,-1.2529,-1.2529,-1.2513,-1.2513,-1.2512,-1.2495,-1.2495,-1.2494,-1.2494,-1.2476,-1.2476,-1.2475,0,0,0,0,0,0,0,0,0,0,0,0,0,-1.2534,-1.2545,-1.2529,-1.2518,-1.2517,-1.2513,-1.2513,-1.2512,-1.2495,-1.2495,-1.2494,-1.2494,-1.2476,-1.2476,-1.2475,-1.248,0,0,-1.2474,-1.2474,0,0,0,0,0,0,0,0,-1.2535,-1.2534,-1.252,-1.2519,-1.2518,-1.2506,-1.2511,-1.2501,-1.2495,-1.2503,-1.2494,-1.2494,-1.2486,-1.2485,-1.2482,-1.2479,-1.2479,-1.2474,-1.2474,-1.2474,-1.2474,0,0,0,0,0,0,0,-1.2536,-1.2534,-1.2523,-1.252,-1.2519,-1.2514,-1.2512,-1.2509,-1.2497,-1.2503,-1.2501,-1.25,-1.2485,-1.2483,-1.2482,-1.2478,-1.2474,-1.2474,-1.2474,-1.2473,-1.2478,-1.2478,0,0,0,0,0,0,-1.2538,-1.2535,-1.2523,-1.2522,-1.2526,-1.2514,-1.2512,-1.251,-1.2497,-1.2495,-1.25,-1.2499,-1.2484,-1.2482,-1.2481,-1.2485,-1.2474,-1.2473,-1.2473,-1.2478,-1.2478,-1.2478,0,0,0,0,0,0,-1.2539,-1.2537,-1.2524,-1.2528,-1.2526,-1.2514,-1.2512,-1.251,-1.2507,-1.2495,-1.2492,-1.25,-1.2483,-1.2482,-1.2481,-1.2485,-1.2473,-1.2473,-1.2477,-1.2478,-1.2478,-1.2494,0,0,0,0,0,0,-1.2539,-1.2538,-1.2539,-1.2528,-1.2526,-1.2524,-1.2512,-1.251,-1.2507,-1.2505,-1.2494,-1.2492,-1.2483,-1.2481,-1.248,-1.2484,-1.2472,-1.2477,-1.2477,-1.2478,-1.2493,-1.2495,-1.2497,0,0,0,0,0,-1.254,-1.2544,-1.254,-1.2538,-1.2528,-1.2524,-1.2523,-1.2513,-1.2507,-1.2509,-1.2501,-1.2492,-1.2485,-1.2481,-1.248,-1.2483,-1.2476,-1.2477,-1.2478,-1.2493,-1.2495,-1.2497,0,0,0,0,0,0,-1.2555,-1.2543,-1.2537,-1.2539,-1.2533,-1.2521,-1.2523,-1.2516,-1.2511,-1.2509,-1.2497,-1.2495,-1.2495,-1.2489,-1.2486,-1.2487,-1.2479,-1.248,-1.2491,-1.2493,-1.2495,-1.2496,-1.2472,0,0,0,0,0,-1.2559,-1.2558,-1.2546,-1.2549,-1.2546,-1.2535,-1.2533,-1.2526,-1.2519,-1.2516,-1.2508,-1.2502,-1.2498,-1.2495,-1.2491,-1.2493,-1.249,-1.2495,-1.2497,-1.2498,-1.2498,-1.2499,-1.25,-1.2481,-1.2481,-1.2481,0,0,-1.2567,-1.256,-1.2559,-1.2552,-1.2546,-1.2544,-1.2533,-1.2531,-1.253,-1.2516,-1.2514,-1.2508,-1.25,-1.25,-1.25,-1.2496,-1.2503,-1.2499,-1.2501,-1.25,-1.25,-1.2502,-1.2503,-1.2482,-1.2481,-1.2481,0,0,-1.2579,-1.2574,-1.2575,-1.257,-1.2562,-1.2555,-1.2555,-1.2545,-1.2541,-1.2539,-1.2529,-1.2527,-1.252,-1.2514,-1.2511,-1.2522,-1.2514,-1.2521,-1.253,-1.253,-1.2532,-1.2533,-1.2536,-1.2538,-1.2522,-1.2522,-1.2522,0,-1.2589,-1.2586,-1.2576,-1.2575,-1.2572,-1.2561,-1.2561,-1.2557,-1.2548,-1.2546,-1.2541,-1.2533,-1.2527,-1.2525,-1.2528,-1.2526,-1.2525,-1.2522,-1.2533,-1.2534,-1.2535,-1.2538,-1.2539,-1.2522,-1.2522,-1.2522,-1.2522,0,-1.2599,-1.2597,-1.2598,-1.2591,-1.2588,-1.2588,-1.2578,-1.2576,-1.2569,-1.2563,-1.2561,-1.2553,-1.2547,-1.2546,-1.254,-1.2544,-1.2541,-1.2535,-1.2526,-1.2538,-1.254,-1.2541,-1.2524,-1.2523,-1.2523,-1.2523,0,0,-1.2619,-1.2607,-1.2607,-1.2604,-1.2594,-1.2592,-1.2592,-1.2586,-1.2585,-1.2579,-1.2578,-1.2573,-1.2567,-1.2563,-1.2556,-1.2557,-1.2565,-1.255,-1.255,-1.2552,-1.2569,-1.2573,-1.2574,-1.256,-1.256,-1.256,-1.2569,0,-1.2629,-1.2628,-1.2619,-1.262,-1.2618,-1.2607,-1.2607,-1.2601,-1.2595,-1.2592,-1.2585,-1.2581,-1.2574,-1.2572,-1.2572,-1.2564,-1.2568,-1.2563,-1.2558,-1.2558,-1.2559,-1.2576,-1.258,-1.2589,-1.257,-1.257,-1.257,0,-1.264,-1.2636,-1.2637,-1.2628,-1.2627,-1.2626,-1.262,-1.2618,-1.2611,-1.2607,-1.2603,-1.2595,-1.2593,-1.2586,-1.2583,-1.258,-1.2578,-1.2574,-1.2574,-1.2572,-1.2564,-1.2573,-1.2591,-1.2592,-1.2572,-1.2572,-1.2572,0,-1.2654,-1.2649,-1.2648,-1.2646,-1.2635,-1.2635,-1.2631,-1.2624,-1.2621,-1.2616,-1.2614,-1.2609,-1.2606,-1.2602,-1.2593,-1.2588,-1.2591,-1.2583,-1.2586,-1.2586,-1.2586,-1.2586,-1.2603,-1.2586,-1.2586,-1.2586,-1.2586,0,-1.2666,-1.2666,-1.2655,-1.2654,-1.2655,-1.2645,-1.2646,-1.264,-1.2634,-1.2632,-1.2623,-1.2621,-1.261,-1.2606,-1.2599,-1.2598,-1.2597,-1.2592,-1.259,-1.2593,-1.2593,-1.259,-1.2589,-1.2587,-1.2587,-1.2587,-1.2586,0,-1.2681,-1.2673,-1.2672,-1.2663,-1.266,-1.2661,-1.2653,-1.2652,-1.2646,-1.2643,-1.2642,-1.2632,-1.2628,-1.2619,-1.2612,-1.2607,-1.2607,-1.2604,-1.261,-1.2608,-1.2612,-1.2611,-1.2626,-1.2627,-1.2611,-1.2611,-1.2611,0,-1.2688,-1.2688,-1.2679,-1.2678,-1.2674,-1.2671,-1.2669,-1.266,-1.2657,-1.265,-1.2649,-1.2645,-1.264,-1.2634,-1.2626,-1.2621,-1.2617,-1.2623,-1.2616,-1.2618,-1.2616,-1.2616,-1.2615,-1.2624,-1.2624,-1.2624,-1.2624,0,-1.2702,-1.2698,-1.2695,-1.269,-1.2687,-1.2683,-1.2679,-1.2678,-1.2667,-1.2665,-1.2661,-1.2658,-1.2651,-1.2646,-1.264,-1.2635,-1.2628,-1.2627,-1.2627,-1.2629,-1.2632,-1.2629,-1.2613,-1.2626,-1.2626,-1.2626,-1.2626,-1.2626,-1.2712,-1.2712,-1.2706,-1.2702,-1.2698,-1.2694,-1.2693,-1.2687,-1.2683,-1.2678,-1.2673,-1.2669,-1.2662,-1.2653,-1.2649,-1.2645,-1.2642,-1.2642,-1.2642,-1.2642,-1.2643,-1.2633,-1.2644,-1.2644,-1.2644,-1.2644,-1.2644,0,-1.2725,-1.272,-1.2717,-1.2711,-1.2709,-1.2703,-1.2698,-1.2696,-1.2693,-1.2688,-1.2684,-1.2679,-1.2675,-1.2666,-1.2661,-1.266,-1.2656,-1.2659,-1.2658,-1.2657,-1.2647,-1.2647,-1.2662,-1.2662,-1.2662,-1.2662,-1.2662,-1.2662,-1.2731,-1.273,-1.2725,-1.2722,-1.2718,-1.2714,-1.2712,-1.2708,-1.2704,-1.2699,-1.2695,-1.269,-1.2684,-1.2678,-1.2673,-1.2671,-1.2669,-1.2672,-1.2669,-1.266,-1.2658,-1.2656,-1.2656,-1.2672,-1.2672,-1.2679,-1.2679,-1.2679]},{"header":{"parameterUnit":"m.s-1","parameterCategory":1,"la1":30.2991,"la2":30.254,"lo1":-89.0895,"lo2":-89.0444,"dy":0.0017,"dx":0.0017,"nx":28,"ny":28,"refTime":"2025-12-28T09:00:00:Z","depth":0,"parameterNumber":3,"parameterNumberName":"V-component_of_WINDS"},"data":[0,0,0,0,0,0,0,0,0,0,0,0,0,0,0,0,0,0,0,0,0,0,0,0,0,0,0,0,0,0,0,0,0,0,0,0,0,0,0,0,0,0,0,0,0,0,0,0,0,0,0,0,0,0,0,0,0,0,1.8242,1.8244,0,1.8418,1.842,1.8422,1.852,1.8521,1.8521,1.8521,1.8702,1.8707,1.8711,0,0,0,0,0,0,0,0,0,0,0,0,0,1.7996,1.8,1.8242,1.8244,1.8246,1.8418,1.842,1.8423,1.852,1.8521,1.8521,1.8521,1.8701,1.8706,1.8712,0,0,0,0,0,0,0,0,0,0,0,0,0,1.813,1.8001,1.8242,1.8316,1.8324,1.8417,1.842,1.8423,1.852,1.8521,1.8521,1.8521,1.8699,1.8706,1.8712,1.8746,0,0,1.8733,1.8736,0,0,0,0,0,0,0,0,1.8122,1.8139,1.8303,1.8311,1.832,1.8448,1.84,1.8532,1.852,1.8446,1.8521,1.8522,1.8617,1.8631,1.8663,1.8754,1.8762,1.8734,1.8738,1.8741,1.8743,0,0,0,0,0,0,0,1.8113,1.8132,1.8312,1.8305,1.8316,1.8342,1.8362,1.8425,1.8527,1.8452,1.846,1.8479,1.8622,1.8656,1.8668,1.8765,1.8734,1.874,1.8744,1.8747,1.8899,1.8899,0,0,0,0,0,0,1.8091,1.8124,1.8306,1.8317,1.822,1.8346,1.8368,1.8406,1.8527,1.8545,1.8479,1.8483,1.8644,1.866,1.8675,1.8726,1.8741,1.8747,1.8751,1.8899,1.8899,1.8899,0,0,0,0,0,0,1.8086,1.8107,1.8299,1.8223,1.8249,1.835,1.8392,1.841,1.8444,1.8547,1.8565,1.8494,1.8645,1.8665,1.8729,1.8733,1.875,1.8757,1.8899,1.8899,1.8899,1.8825,0,0,0,0,0,0,1.8078,1.8104,1.8116,1.8222,1.8253,1.8348,1.8392,1.8413,1.8455,1.8463,1.8566,1.8584,1.8647,1.8718,1.8736,1.8743,1.8762,1.8899,1.8899,1.8899,1.8828,1.8822,1.8818,0,0,0,0,0,1.8069,1.8087,1.8116,1.8138,1.827,1.8348,1.8366,1.8438,1.8455,1.8469,1.8537,1.8581,1.873,1.8724,1.8744,1.8754,1.8899,1.8899,1.8899,1.883,1.8823,1.8818,0,0,0,0,0,0,1.7978,1.8102,1.8136,1.8188,1.8257,1.8365,1.8384,1.8429,1.8494,1.8498,1.8586,1.8608,1.8665,1.8716,1.8707,1.8796,1.882,1.8823,1.876,1.8755,1.875,1.8737,1.8768,0,0,0,0,0,1.7964,1.8016,1.8123,1.8159,1.8192,1.8282,1.8319,1.8369,1.8444,1.8474,1.8545,1.8617,1.8681,1.8721,1.8784,1.8836,1.8862,1.8853,1.8848,1.8844,1.8846,1.8882,1.8881,1.8898,1.8898,1.8898,0,0,1.7936,1.801,1.8037,1.8143,1.8202,1.8257,1.8306,1.836,1.8402,1.8482,1.8547,1.8603,1.8689,1.8748,1.8777,1.8792,1.8848,1.8844,1.8839,1.8845,1.8882,1.888,1.8879,1.8898,1.8898,1.8898,0,0,1.7912,1.7972,1.8012,1.8071,1.8161,1.8222,1.8231,1.8333,1.8374,1.8441,1.8504,1.8556,1.8662,1.8723,1.8767,1.8773,1.8818,1.8791,1.8767,1.8801,1.8799,1.8799,1.8804,1.8804,1.8794,1.8793,1.8793,0,1.7866,1.7949,1.8026,1.8079,1.8125,1.8201,1.8244,1.8298,1.8403,1.8435,1.845,1.8589,1.8652,1.8729,1.8731,1.8763,1.8779,1.878,1.8793,1.8793,1.8794,1.88,1.8801,1.879,1.879,1.8791,1.8791,0,1.7889,1.7947,1.7968,1.807,1.8119,1.8165,1.8252,1.8293,1.834,1.84,1.8471,1.855,1.8633,1.8655,1.8701,1.874,1.8747,1.8776,1.8802,1.8787,1.8795,1.8797,1.8785,1.8786,1.8787,1.8788,0,0,1.781,1.7958,1.7965,1.8014,1.8121,1.8168,1.8221,1.8303,1.8338,1.841,1.8458,1.8549,1.8579,1.863,1.8684,1.8713,1.8718,1.874,1.8744,1.8735,1.877,1.8748,1.8749,1.8748,1.8749,1.8749,1.8764,0,1.7804,1.7901,1.7975,1.8044,1.8101,1.8177,1.8223,1.8295,1.8354,1.8412,1.8478,1.8542,1.8575,1.8607,1.8639,1.871,1.8726,1.871,1.8796,1.8798,1.8773,1.8753,1.8729,1.8738,1.8767,1.8767,1.8768,0,1.7809,1.788,1.7955,1.8061,1.8088,1.8128,1.8213,1.8266,1.8351,1.8393,1.8452,1.8508,1.8571,1.8591,1.868,1.8667,1.8707,1.8748,1.875,1.8762,1.8782,1.8766,1.8743,1.8745,1.8772,1.8772,1.8772,0,1.7747,1.7862,1.7923,1.7963,1.8087,1.8114,1.8168,1.8253,1.83,1.8375,1.8407,1.8487,1.8531,1.8593,1.8671,1.8678,1.8753,1.8779,1.8792,1.879,1.8804,1.8802,1.8789,1.8827,1.8827,1.8827,1.8827,0,1.7733,1.7777,1.7898,1.7935,1.7989,1.8075,1.8125,1.8186,1.8262,1.8315,1.8386,1.8434,1.8534,1.8596,1.8657,1.8724,1.8742,1.8779,1.8796,1.8774,1.877,1.8802,1.8804,1.8827,1.8827,1.8827,1.8827,0,1.7673,1.7755,1.7828,1.7941,1.7971,1.8005,1.8103,1.8145,1.8209,1.8276,1.8296,1.8397,1.8474,1.8559,1.8662,1.8705,1.8768,1.879,1.8739,1.8749,1.8757,1.8756,1.8765,1.8773,1.8803,1.8803,1.8802,0,1.7659,1.7695,1.7813,1.7854,1.7906,1.797,1.8019,1.8107,1.8156,1.8259,1.8288,1.8371,1.8441,1.856,1.8644,1.8726,1.8752,1.875,1.8764,1.8743,1.8755,1.8752,1.8758,1.8745,1.8744,1.8743,1.8743,0,1.7627,1.7667,1.7734,1.7818,1.7875,1.7944,1.8017,1.8047,1.815,1.8201,1.8281,1.8336,1.8445,1.8527,1.8619,1.8677,1.8728,1.8738,1.8746,1.8724,1.8695,1.8714,1.8729,1.8737,1.8738,1.8738,1.8738,1.8739,1.7591,1.7629,1.7719,1.7794,1.7858,1.7926,1.7971,1.8043,1.8111,1.8206,1.8255,1.8335,1.8425,1.8555,1.8611,1.8677,1.8693,1.8703,1.8706,1.8708,1.8704,1.8683,1.8694,1.8694,1.8695,1.8695,1.8695,0,1.7565,1.7628,1.7696,1.7797,1.7856,1.79,1.7985,1.8032,1.8102,1.8181,1.825,1.8344,1.8426,1.8517,1.8605,1.864,1.8667,1.8661,1.866,1.8673,1.8683,1.8668,1.8638,1.8638,1.8638,1.8638,1.8638,1.8638,1.7559,1.7626,1.7677,1.7779,1.7843,1.7922,1.7967,1.8031,1.8095,1.8197,1.8266,1.8325,1.8411,1.8507,1.8585,1.861,1.864,1.8627,1.866,1.8667,1.8672,1.8676,1.8663,1.8633,1.8633,1.8645,1.8645,1.8645]}]]